DW0126 Weather Reports


Display with metric or nautical units.
time (UTC)temp
F
wind
direction
speed
MPH
gust
MPH
rain 1hr
in
rain 24hr
in
rain mn
in
humidity
%
barometer
mb
20260508195816 61 248 3.0 7.0 0.00 0.00 0.00 61 1020.9
20260508194815 60 180 5.0 8.0 0.00 0.00 0.00 62 1020.8
20260508193855 59 180 3.0 6.0 0.00 0.00 0.00 65 1020.8
20260508192815 57 225 4.0 8.0 0.00 0.00 0.00 67 1020.7
20260508191815 57 225 3.0 6.0 0.00 0.00 0.00 66 1020.9
20260508190815 57 225 4.0 8.0 0.00 0.00 0.00 67 1020.8
20260508185816 56 225 6.0 10.0 0.00 0.00 0.00 68 1020.8
20260508184816 56 225 5.0 9.0 0.00 0.00 0.00 69 1020.7
20260508183855 56 225 4.0 7.0 0.00 0.00 0.00 69 1020.8
20260508182836 56 225 3.0 7.0 0.00 0.00 0.00 70 1020.6
20260508181815 55 315 1.0 4.0 0.00 0.00 0.00 72 1020.7
20260508180815 54 225 3.0 5.0 0.00 0.00 0.00 73 1020.7
20260508175835 53 203 3.0 5.0 0.00 0.00 0.00 74 1020.6
20260508174815 53 180 1.0 4.0 0.00 0.00 0.00 74 1020.6
20260508173815 53 225 5.0 8.0 0.00 0.00 0.00 74 1020.5
20260508172815 53 225 4.0 6.0 0.00 0.00 0.00 75 1020.4
20260508171815 53 225 5.0 7.0 0.00 0.00 0.00 75 1020.4
20260508170815 52 225 5.0 8.0 0.00 0.00 0.00 74 1020.1
20260508165836 52 225 4.0 6.0 0.00 0.00 0.00 73 1019.9
20260508164815 52 225 5.0 11.0 0.00 0.00 0.00 73 1019.9
20260508163815 52 225 3.0 9.0 0.00 0.00 0.00 74 1020.0
20260508162816 52 248 3.0 4.0 0.00 0.00 0.00 74 1019.8
20260508161815 52 248 5.0 7.0 0.00 0.00 0.00 74 1019.8
20260508160815 52 225 4.0 6.0 0.00 0.00 0.00 75 1019.5
20260508155816 52 248 5.0 7.0 0.00 0.00 0.00 75 1019.6
20260508154815 52 225 5.0 7.0 0.00 0.00 0.00 75 1019.4
20260508153815 52 225 5.0 8.0 0.00 0.00 0.00 78 1019.3
20260508152815 51 225 3.0 6.0 0.00 0.00 0.00 78 1019.3
20260508151815 51 203 4.0 8.0 0.00 0.00 0.00 80 1019.3
20260508150815 51 225 3.0 5.0 0.00 0.00 0.00 81 1019.4
20260508145815 51 203 1.0 3.0 0.00 0.00 0.00 82 1019.3
20260508144815 50 203 3.0 5.0 0.00 0.00 0.00 84 1019.4
20260508143815 50 180 3.0 9.0 0.00 0.00 0.00 84 1019.6
20260508142815 49 225 1.0 4.0 0.00 0.00 0.00 85 1019.5
20260508141815 49 225 1.0 3.0 0.00 0.00 0.00 86 1019.4
20260508140815 49 248 3.0 4.0 0.00 0.00 0.00 87 1019.4
20260508135815 48 248 2.0 4.0 0.00 0.00 0.00 87 1019.3
20260508134815 48 158 1.0 4.0 0.00 0.00 0.00 87 1019.0
20260508134255 48 158 3.0 5.0 0.00 0.00 0.00 87 1018.9
20260508133215 48 225 3.0 6.0 0.00 0.00 0.00 88 1018.7
20260508132215 48 248 3.0 5.0 0.00 0.00 0.00 88 1018.7
20260508131215 48 248 2.0 6.0 0.00 0.00 0.00 87 1018.5
20260508130215 48 225 2.0 3.0 0.00 0.00 0.00 87 1018.3
20260508125215 48 248 3.0 4.0 0.00 0.00 0.00 87 1017.9
20260508124215 48 225 3.0 5.0 0.00 0.00 0.00 87 1017.9
20260508123215 48 225 3.0 5.0 0.00 0.00 0.00 87 1018.0
20260508122215 48 225 3.0 4.0 0.00 0.00 0.00 88 1018.1
20260508121215 48 180 3.0 6.0 0.00 0.00 0.00 88 1017.9
20260508120215 48 203 4.0 6.0 0.00 0.00 0.00 88 1017.7
20260508115215 48 225 6.0 10.0 0.00 0.00 0.00 87 1017.7
20260508114215 48 225 1.0 3.0 0.00 0.00 0.00 87 1017.7
20260508113215 48 225 5.0 7.0 0.00 0.00 0.00 87 1017.5
20260508112215 48 225 5.0 7.0 0.00 0.00 0.00 87 1017.3
20260508111215 49 225 2.0 4.0 0.00 0.00 0.00 87 1017.2
20260508110215 49 203 4.0 6.0 0.00 0.00 0.00 87 1017.1
20260508105215 49 0.0 0.0 0.00 0.00 0.00 87 1017.1
20260508104215 49 248 4.0 7.0 0.00 0.00 0.00 87 1017.0
20260508103215 49 0.0 3.0 0.00 0.00 0.00 87 1016.8
20260508102215 49 225 1.0 3.0 0.00 0.00 0.00 87 1016.7
20260508101215 49 248 2.0 2.0 0.00 0.00 0.00 87 1016.6
20260508100215 49 0.0 0.0 0.00 0.00 0.00 87 1016.6
20260508095215 49 0.0 1.0 0.00 0.00 0.00 87 1016.6
20260508094215 49 0.0 0.0 0.00 0.00 0.00 87 1016.5
20260508093215 49 0.0 0.0 0.00 0.00 0.00 87 1016.4
20260508092215 49 0.0 0.0 0.00 0.00 0.00 86 1016.5
20260508091215 49 0.0 0.0 0.00 0.00 0.00 86 1016.4
20260508090215 49 0.0 1.0 0.00 0.00 0.00 86 1016.5
20260508085215 49 225 1.0 3.0 0.00 0.00 0.00 86 1016.4
20260508084215 50 0.0 0.0 0.00 0.00 0.00 86 1016.4
20260508083215 50 0.0 0.0 0.00 0.00 0.00 86 1016.3
20260508082215 50 248 2.0 3.0 0.00 0.00 0.00 86 1016.3
20260508081215 50 0.0 0.0 0.00 0.00 0.00 86 1016.2
20260508080235 50 0.0 0.0 0.00 0.00 0.00 86 1016.3
20260508075215 50 0.0 0.0 0.00 0.00 0.00 85 1016.1
20260508074215 50 0.0 0.0 0.00 0.00 0.00 84 1016.0
20260508073215 50 0.0 0.0 0.00 0.00 0.00 84 1016.0
20260508072215 51 0.0 0.0 0.00 0.00 0.00 84 1016.0
20260508071237 51 0.0 0.0 0.00 0.00 0.00 84 1015.9
20260508070217 51 0.0 0.0 0.00 0.00 0.00 84 1016.1
20260508065216 51 0.0 2.0 0.00 0.00 0.00 83 1016.2
20260508064236 51 0.0 0.0 0.00 0.00 0.00 83 1016.1
20260508063216 52 0.0 0.0 0.00 0.00 0.00 83 1016.0
20260508062216 52 0.0 0.0 0.00 0.00 0.00 81 1015.9
20260508061216 53 0.0 0.0 0.00 0.00 0.00 81 1016.0
20260508060216 53 0.0 0.0 0.00 0.00 0.00 81 1016.1
20260508055216 53 0.0 0.0 0.00 0.00 0.00 80 1016.1
20260508054216 54 0.0 0.0 0.00 0.00 0.00 79 1016.0
20260508053216 55 0.0 0.0 0.00 0.00 0.00 77 1016.2
20260508052216 55 0.0 0.0 0.00 0.00 0.00 77 1016.2
20260508051216 55 0.0 0.0 0.00 0.00 0.00 77 1016.1
20260508050236 55 0.0 0.0 0.00 0.00 0.00 77 1016.1
20260508045236 55 0.0 0.0 0.00 0.00 0.00 78 1016.1
20260508044216 56 0.0 0.0 0.00 0.00 0.00 76 1016.0
20260508043216 56 0.0 0.0 0.00 0.00 0.00 76 1016.0
20260508042216 57 0.0 0.0 0.00 0.00 0.00 74 1016.0
20260508041216 58 0.0 0.0 0.00 0.00 0.00 72 1016.0
20260508040216 59 0.0 0.0 0.00 0.00 0.00 70 1016.0
20260508035216 60 0.0 0.0 0.00 0.00 0.00 70 1015.9
20260508034216 60 0.0 0.0 0.00 0.00 0.00 69 1015.8
20260508033216 61 0.0 0.0 0.00 0.00 0.00 67 1015.7
20260508032215 61 0.0 0.0 0.00 0.00 0.00 67 1015.7
20260508031215 62 0.0 0.0 0.00 0.00 0.00 65 1015.7
20260508030236 63 0.0 0.0 0.00 0.00 0.00 61 1015.5
20260508025236 64 0.0 1.0 0.00 0.00 0.00 60 1015.5
20260508024216 66 45 2.0 4.0 0.00 0.00 0.00 55 1015.6
20260508023216 66 45 2.0 4.0 0.00 0.00 0.00 54 1015.6
20260508022216 66 45 2.0 5.0 0.00 0.00 0.00 52 1015.6
20260508021216 66 0.0 0.0 0.00 0.00 0.00 48 1015.7
20260508020216 67 0.0 0.0 0.00 0.00 0.00 46 1015.8
20260508015216 68 0.0 0.0 0.00 0.00 0.00 44 1015.8
20260508014216 68 23 1.0 2.0 0.00 0.00 0.00 44 1015.9
20260508013216 68 0.0 0.0 0.00 0.00 0.00 42 1016.0
20260508012215 68 0.0 0.0 0.00 0.00 0.00 43 1016.0
20260508011216 67 0.0 0.0 0.00 0.00 0.00 43 1016.1
20260508010216 68 0 3.0 5.0 0.00 0.00 0.00 43 1016.3
20260508005216 68 23 1.0 3.0 0.00 0.00 0.00 44 1016.5
20260508004216 68 0 1.0 4.0 0.00 0.00 0.00 44 1016.5
20260508003216 69 0.0 0.0 0.00 0.00 0.00 44 1016.7
20260508002215 69 248 2.0 3.0 0.00 0.00 0.00 44 1016.7
20260508001216 69 338 1.0 2.0 0.00 0.00 0.00 45 1016.8
20260508000236 68 293 2.0 4.0 0.00 0.00 0.00 47 1016.8
20260507235215 68 225 4.0 5.0 0.00 0.00 0.00 47 1017.0
20260507234216 69 270 2.0 3.0 0.00 0.00 0.00 46 1017.1
20260507233216 68 23 2.0 3.0 0.00 0.00 0.00 47 1017.2
20260507232215 68 293 1.0 2.0 0.00 0.00 0.00 47 1017.2
20260507231235 68 248 3.0 6.0 0.00 0.00 0.00 47 1017.4
20260507230216 68 225 1.0 2.0 0.00 0.00 0.00 48 1017.4
20260507225215 67 248 2.0 4.0 0.00 0.00 0.00 49 1017.5
20260507224216 67 203 4.0 6.0 0.00 0.00 0.00 50 1017.6
20260507223216 67 270 2.0 4.0 0.00 0.00 0.00 50 1017.8
20260507222216 67 225 1.0 4.0 0.00 0.00 0.00 50 1017.9
20260507221216 67 23 2.0 3.0 0.00 0.00 0.00 50 1018.0
20260507220216 66 225 2.0 3.0 0.00 0.00 0.00 51 1018.1
20260507215215 66 248 2.0 4.0 0.00 0.00 0.00 52 1018.2
20260507214236 64 0 1.0 3.0 0.00 0.00 0.00 54 1018.3
20260507213216 64 270 2.0 4.0 0.00 0.00 0.00 54 1018.3
20260507212215 64 23 2.0 4.0 0.00 0.00 0.00 55 1018.5
20260507211236 64 23 2.0 4.0 0.00 0.00 0.00 55 1018.5
20260507210216 64 0.0 1.0 0.00 0.00 0.00 54 1018.7
20260507205215 63 225 2.0 3.0 0.00 0.00 0.00 56 1018.8
20260507204215 63 270 1.0 5.0 0.00 0.00 0.00 56 1018.9
20260507203216 63 293 1.0 2.0 0.00 0.00 0.00 57 1019.1
20260507202216 62 293 1.0 4.0 0.00 0.00 0.00 58 1019.1
20260507201216 62 315 3.0 4.0 0.00 0.00 0.00 58 1019.3
20260507200216 61 0.0 3.0 0.00 0.00 0.00 59 1019.3